STARLINK-33719

Last updated on Thu May 15 2025 00:02:04 GMT+0000 (Coordinated Universal Time)

1 63578U 25076K 25134.83335648 -.01529606 00000+0 -34103-1 0 9996 2 63578 42.9991 213.0390 0001643 275.1371 63.9708 15.45832099 6008
UTC large
Height (km)
Speed (km/s)
/
Latitude / Longitude
Inclination (degrees)
Orbital Period (minutes)
Azimuth
Elevation
Range (km)
Doppler Factor

Next 0 passes for location: London (51.5072 / 0.1276)

Sorry there are no passes over London.